History Range:
146.850
Actions Date Temp RH
2019-02-22 12:30:00 86.0000 15.0000
2019-02-22 12:00:02 86.0000 15.3000
2019-02-22 11:32:42 86.0000 14.5000
2019-02-22 11:00:02 86.2000 14.8000
2019-02-22 10:30:02 86.4000 14.5000
2019-02-22 10:00:00 86.4000 14.3000
2019-02-22 09:30:04 86.4000 14.5000
2019-02-22 09:00:00 86.4000 14.4000
2019-02-22 08:32:13 86.7000 14.4000
2019-02-22 08:03:48 86.9000 14.6000
2019-02-22 07:30:04 87.1000 14.8000
2019-02-22 07:00:12 86.9000 14.9000
2019-02-22 06:39:02 87.1000 15.0000
2019-02-22 06:00:02 87.3000 15.2000
2019-02-22 05:30:34 87.1000 15.2000
2019-02-22 05:08:32 87.1000 15.2000
2019-02-22 04:30:02 87.1000 15.2000
2019-02-22 04:00:02 87.1000 15.3000
2019-02-22 03:30:04 87.1000 15.4000
2019-02-22 03:00:04 87.1000 15.1000